Location: Ru�ras
(46.7500°N, 8.6833°E)
Time: 02:01:40
(UTC+00:00)

Daily predictions for brighter satellites

Satellite Brightness Start Highest point End
(mag) Time Altitude Azimuth Time Altitude Azimuth Time Altitude Azimuth
CENTAUR R/B 4.3 02:14:21 38° E 02:14:21 38° E 02:19:53 10° ESE
Lacrosse 5 4.4 02:52:48 17° E 02:52:48 17° E 02:54:37 10° ENE
Cosmos 2263 Rocket 3.9 03:01:26 29° ENE 03:01:26 29° ENE 03:04:32 10° NE
SJ 16-02 4.1 03:08:47 16° ENE 03:08:47 16° ENE 03:10:20 10° NE
CZ-4C R/B 4.2 03:25:49 16° SSE 03:28:11 22° ESE 03:32:24 10° ENE
BREEZE-M DEB (TANK) 4.4 03:30:34 78° NNW 03:30:51 79° N 03:35:13 10° E
ATLAS 3B R/B 3.5 03:30:35 39° N 03:32:15 45° NE 03:39:02 10° ESE
Cosmos 1943 4.1 03:36:00 41° SE 03:36:00 41° SE 03:39:38 10° SSE
Lacrosse 4 Rocket 3.5 03:38:11 24° SE 03:38:11 24° SE 03:40:02 10° SE
Cosmos 2227 Rocket 4.5 03:57:13 11° N 03:57:13 11° N 03:57:40 10° N
Cosmos 923 Rocket 4.4 03:53:37 58° NE 03:54:11 61° ENE 03:59:27 10° SE
ALOS 3.0 03:49:39 10° NNE 03:53:16 48° NE 03:53:16 48° NE
Cosmos 2227 4.5 04:01:36 53° N 04:01:36 53° N 04:06:01 10° NNE
NOSS 3-2 (C) 4.1 04:00:07 55° WSW 04:00:26 56° WSW 04:08:42 10° SSE
NOSS 3-4 (A) 3.3 04:00:50 68° SSW 04:01:39 86° SE 04:08:01 10° NE
NOSS 3-4 (C) 3.3 04:00:54 67° SSW 04:01:46 85° SE 04:08:08 10° NE
CENTAUR R/B 3.2 04:01:35 54° W 04:02:25 56° WSW 04:10:58 10° SSE
ARGOS Delta rocket 4.0 04:00:13 10° NNE 04:04:43 67° NNE 04:04:43 67° NNE
USA 306 4.4 04:10:52 28° NNE 04:10:52 28° NNE 04:13:46 10° ENE
Cosmos 158 Rocket 3.8 04:10:38 76° NNE 04:10:56 81° ENE 04:15:55 10° SSE
SL-4 R/B 3.3 04:15:02 32° NE 04:15:02 32° NE 04:17:25 10° ENE
Cosmos 1151 Rocket 3.7 04:17:01 43° S 04:17:01 43° S 04:19:55 10° S
Cosmos 1782 3.3 04:16:34 53° NE 04:17:05 58° ENE 04:21:03 10° SSE
SKYMED 2 4.1 04:13:12 10° SSE 04:17:26 57° ENE 04:19:24 30° N
Cosmos 1844 Rocket 4.1 04:12:32 10° S 04:17:40 38° ESE 04:22:52 10° NE
ATLAS 2AS CENTAUR R/B 3.0 04:15:30 21° SW 04:21:17 90° SE 04:29:12 10° NE
ERS-2 4.2 04:18:10 10° S 04:19:17 19° S 04:19:17 19° S
Cosmos 1680 Rocket 3.5 04:20:02 37° NNW 04:22:12 80° ENE 04:27:30 10° SSE
FALCON 9 DEB 4.5 04:24:40 36° E 04:24:40 36° E 04:26:48 10° ENE
ATLAS 5 CENTAUR R/B 3.6 04:31:19 20° N 04:31:19 20° N 04:32:18 10° NNE
Atlas Centaur 2 4.4 04:26:40 12° SSW 04:29:42 16° S 04:33:06 10° SE
RESURS DK-1 3.2 04:27:45 10° S 04:31:47 51° ESE 04:35:50 10° NE
CRYOSAT 2 4.3 04:27:39 10° S 04:32:30 89° ENE 04:37:24 10° N
ATLAS CENTAUR R/B 1.7 04:32:06 47° NNE 04:32:40 52° NE 04:36:30 10° SE
Lacrosse 5 1.7 04:32:02 51° WSW 04:33:22 86° NW 04:38:28 10° NE
ADEOS 3.4 04:28:54 10° N 04:34:07 70° WNW 04:39:18 10° SSW
Cosmos 1328 Rocket 3.5 04:35:40 64° W 04:35:40 64° W 04:40:01 10° S
H-2A R/B 4.4 04:36:31 10° NNE 04:40:08 35° E 04:43:42 10° SSE
Cosmos 2112 Rocket 3.9 04:38:53 26° NNW 04:41:58 83° WSW 04:47:18 10° SSE
Cosmos 2263 Rocket 2.7 04:43:11 37° NW 04:43:13 37° NW 04:48:29 10° NNE
Gbstr 26 Del rocket 2.5 04:43:34 68° WSW 04:43:47 71° SSW 04:47:40 10° SE
SJ 16-02 1.7 04:45:52 45° NW 04:45:52 45° NW 04:49:42 10° N
Cosmos 1898 Rocket 3.5 04:47:33 10° SSW 04:52:53 89° ESE 04:58:15 10° NNE
Meteor 1-26 Rocket 4.4 04:48:59 17° NNW 04:53:14 49° W 04:58:36 10° SSW
FALCON 9 DEB 2.7 04:56:35 70° W 04:56:53 82° NNW 05:00:06 10° ENE
FALCON 9 DEB 2.7 04:56:45 71° W 04:56:59 77° NNW 05:00:13 10° ENE
FENGYUN 3A 4.0 04:53:52 10° N 04:58:53 39° WNW 05:03:52 10° SW
Envisat 4.3 04:54:30 10° NNE 04:59:21 43° E 05:04:11 10° S
Cosmos 1743 Rocket 3.7 04:55:50 10° S 05:00:17 80° E 05:04:47 10° N
Cosmos 1408 Rocket 3.6 04:57:57 10° SSW 05:02:18 53° WNW 05:06:41 10° N
H-2A R/B 4.2 04:59:17 10° NNE 05:02:46 32° E 05:06:13 10° SSE
Cosmos 2082 Rocket 4.4 04:59:57 10° N 05:03:53 19° NE 05:07:49 10° E
Cosmos 2181 Rocket 4.3 04:58:30 10° NNW 05:04:18 43° W 05:10:00 10° SSW
NOSS 7 (H) 4.3 05:01:45 12° SSW 05:04:50 73° SE 05:07:46 10° NE
COSMO-SKYMED 1 2.8 05:01:20 10° S 05:05:30 46° W 05:08:00 22° NW
USA 307 4.0 05:05:08 24° NNW 05:06:49 33° N 05:10:45 10° ENE
Cosmos 1937 Rocket 3.4 05:04:48 10° SSW 05:09:57 89° WNW 05:15:12 10° NNE
USA 308 4.0 05:11:14 23° NW 05:13:13 33° N 05:17:09 10° ENE
Lacrosse 4 Rocket 3.1 05:14:32 18° WSW 05:14:32 18° WSW 05:17:01 10° SSW
Meteor 2-3 Rocket 4.2 05:09:16 10° SW 05:14:32 36° WNW 05:19:53 10° N
Cosmos 1833 Rocket 4.2 05:09:38 10° NNW 05:14:39 31° NE 05:19:37 10° ESE
MOS 1 Rocket 3.4 05:11:02 10° SSE 05:15:51 89° WSW 05:21:01 10° NNW
CZ-4C R/B 2.1 05:11:05 11° SW 05:15:57 64° NW 05:22:00 10° NE
Cosmos 2154 Rocket 4.1 05:09:53 10° S 05:16:06 83° E 05:22:24 10° N
CZ-4B R/B 3.2 05:13:15 10° N 05:17:38 52° WNW 05:21:54 10° SSW
Cosmos 1689 Rocket 2.9 05:15:58 10° SSW 05:18:12 29° WSW 05:18:12 29° WSW
Meteor 1-27 Rocket 4.2 05:13:06 10° N 05:18:50 64° ENE 05:24:39 10° SSE
Cosmos 1805 Rocket 4.1 05:15:05 10° S 05:19:28 64° E 05:23:54 10° NNE
FALCON 9 DEB 3.0 05:18:33 32° W 05:19:45 57° NNW 05:22:57 10° NE
Meteor 1-10 Rocket 4.1 05:15:17 10° NNW 05:20:52 79° W 05:26:28 10° S
ATLAS 3B R/B 3.0 05:17:51 17° NW 05:23:07 53° WSW 05:30:04 10° SSE
Aureole 2 Rocket 1.7 05:21:21 10° SSW 05:23:52 77° ESE 05:26:26 10° NNE
COSMOS 2406 4.3 05:19:22 10° NNW 05:24:53 44° NE 05:30:22 10° SE
Cosmos 1862 3.3 05:23:02 10° SSW 05:27:03 61° WNW 05:31:05 10° N
YAOGAN 6 2.6 05:24:54 10° NNE 05:28:25 76° ESE 05:31:54 10° S
Genesis I 3.3 05:24:55 10° SW 05:28:38 51° NW 05:32:25 10° NNE
ALOS 3.6 05:28:05 10° NNW 05:31:16 18° WNW 05:31:45 18° WNW
Cosmos 2278 Rocket 4.4 05:28:20 10° SSE 05:33:10 30° ESE 05:38:02 10° NE
Cosmos 2327 Rocket 4.4 05:29:29 10° SSW 05:35:33 70° W 05:41:39 10° N
Cosmos 990 Rocket 4.5 05:30:54 10° SW 05:35:46 38° WNW 05:40:41 10° N
Cosmos 2074 Rocket 4.2 05:31:08 10° SSW 05:37:03 46° WNW 05:43:02 10° N
PSLV R/B 3.7 05:33:23 10° N 05:37:14 66° WNW 05:40:59 10° SSW
Meteor 1-31 Rocket 4.4 05:38:38 10° NNW 05:40:29 15° NW 05:40:29 15° NW
USA 305 3.8 05:38:55 15° NW 05:42:12 39° NNE 05:46:15 10° E
BREEZE M DEB (TANK) 3.1 05:35:14 10° SW 05:42:26 58° SSE 05:45:05 10° ENE
Cosmos 405 Rocket 2.9 05:39:24 10° SSW 05:42:56 43° WNW 05:46:32 10° N
SL-24 DEB 4.3 05:38:17 10° S 05:43:02 74° W 05:47:51 10° N
EO 1 Delta rocket 4.4 05:42:10 10° SSW 05:46:52 39° W 05:51:12 10° NNW
Cosmos 1812 3.4 05:43:43 10° NNW 05:47:12 34° W 05:50:41 10° SSW
Cosmos 1295 Rocket 4.4 05:42:26 10° SSW 05:48:30 70° W 05:54:36 10° N
Cosmos 2228 Rocket 3.6 05:45:39 10° NNW 05:49:44 37° W 05:53:47 10° SSW
USA 306 3.7 05:47:01 13° NW 05:50:40 42° NNE 05:54:46 10° E
Cosmos 1633 Rocket 3.9 05:48:43 10° S 05:53:02 56° E 05:57:22 10° NNE
NOSS 3-4 (A) 4.4 05:48:19 11° W 05:53:20 29° NNW 05:58:57 10° NNE
NOSS 3-4 (C) 4.4 05:48:23 11° W 05:53:26 29° NNW 05:59:05 10° NNE
SL-4 R/B 2.4 05:50:37 13° WNW 05:53:52 43° N 05:57:20 10° E
USA 234 3.6 05:51:19 10° NE 05:57:52 75° SE 06:04:25 10° SW
Cosmos 1356 3.4 05:55:09 10° S 05:58:33 90° E 06:01:59 10° N
FALCON 9 DEB 3.8 05:56:58 11° W 05:59:44 34° NNW 06:02:44 10° NE
Cosmos 1844 Rocket 3.2 05:56:16 10° WSW 06:01:33 39° NW 06:06:52 10° NNE
FALCON 9 DEB 3.9 05:59:52 10° NW 06:03:10 42° NNE 06:06:29 10° E
Cosmos 1707 Rocket 3.5 06:02:33 10° NNW 06:06:52 64° W 06:11:07 10° S
EXPRESS MD2 4.3 06:03:41 10° WNW 06:07:45 80° SSW 06:16:19 10° ESE
MOS 1-B 4.4 06:02:41 10° N 06:08:27 63° WNW 06:14:10 10° SSW
COSMOS 2455 2.9 06:03:38 10° SW 06:09:38 70° NW 06:15:42 10° NNE
RESURS DK-1 3.7 06:06:56 10° W 06:10:06 21° NW 06:13:16 10° N
BREEZE-M (TANK) 3.8 06:04:48 10° SW 06:11:04 43° SSE 06:13:32 10° E
ATLAS CENTAUR R/B 3.0 06:08:42 10° WNW 06:11:12 17° WSW 06:13:47 10° SSW
NOAA 6 4.2 06:06:38 10° N 06:11:34 50° WNW 06:16:29 10° SW
BREEZE-M DEB 4.4 06:03:53 10° WNW 06:11:42 33° SW 06:14:38 10° SSE
ATLAS 2AS CENTAUR R/B 3.7 06:06:08 10° W 06:13:15 34° NNW 06:20:12 10° NE
ERBS 4.4 06:12:00 10° NNW 06:13:51 14° N 06:15:44 10° NE
H-2A R/B 4.0 06:11:07 10° NNW 06:14:05 21° WNW 06:17:02 10° WSW
Cosmos 1844 4.2 06:10:20 10° WSW 06:15:28 37° NW 06:20:40 10° NNE
CZ-4B DEB 4.5 06:11:29 10° N 06:16:42 47° WNW 06:21:53 10° SW
Lacrosse 5 2.8 06:12:22 10° W 06:16:54 32° NNW 06:21:27 10° NE
